Location: Boiro
(42.6475°N, 8.8834°W)
Time: 02:13:27
(UTC+01:00)

Vanguard 2 - Pass Details

Date: 07 December 2021
Orbit: 553 x 2936 km, 32.9° (Epoch: 20 January)

Event Time Altitude Azimuth Distance (km) Brightness Sun altitude
Rises 15:50:29 0° 251° (WSW) 2,875 11.4 16.8°
Reaches altitude 10° 15:52:41 10° 240° (WSW) 2,106 11.2 16.6°
Maximum altitude 15:56:54 31° 177° (S) 1,439 9.9 16.1°
Drops below altitude 10° 16:02:53 10° 119° (ESE) 3,046 10.6 15.5°
Sets 16:06:46 0° 110° (ESE) 4,428 11.2 15.0°
